Year,Month,Day,Hour,Minute,Value (Times are PST for temperature in C)
2010,09,03,00,00,17.60
2010,09,03,00,01,17.60
2010,09,03,00,02,17.60
2010,09,03,00,03,17.50
2010,09,03,00,04,17.50
2010,09,03,00,05,17.50
2010,09,03,00,06,17.50
2010,09,03,00,07,17.50
2010,09,03,00,08,17.50
2010,09,03,00,09,17.40
2010,09,03,00,10,17.40
2010,09,03,00,11,17.40
2010,09,03,00,12,17.40
2010,09,03,00,13,17.30
2010,09,03,00,14,17.30
2010,09,03,00,15,17.30
2010,09,03,00,16,17.30
2010,09,03,00,17,17.20
2010,09,03,00,18,17.20
2010,09,03,00,19,17.20
2010,09,03,00,20,17.20
2010,09,03,00,21,17.20
2010,09,03,00,22,17.20
2010,09,03,00,23,17.10
2010,09,03,00,24,17.10
2010,09,03,00,25,17.10
2010,09,03,00,26,17.00
2010,09,03,00,27,17.00
2010,09,03,00,28,16.90
2010,09,03,00,29,16.90
2010,09,03,00,30,16.90
2010,09,03,00,31,16.80
2010,09,03,00,32,16.80
2010,09,03,00,33,16.80
2010,09,03,00,34,16.70
2010,09,03,00,35,16.70
2010,09,03,00,36,16.70
2010,09,03,00,37,16.60
2010,09,03,00,38,16.60
2010,09,03,00,39,16.50
2010,09,03,00,40,16.50
2010,09,03,00,41,16.40
2010,09,03,00,42,16.40
2010,09,03,00,43,16.40
2010,09,03,00,44,16.40
2010,09,03,00,45,16.30
2010,09,03,00,46,16.30
2010,09,03,00,47,16.30
2010,09,03,00,48,16.20
2010,09,03,00,49,16.20
2010,09,03,00,50,16.10
2010,09,03,00,51,16.10
2010,09,03,00,52,16.10
2010,09,03,00,53,16.00
2010,09,03,00,54,16.00
2010,09,03,00,55,15.90
2010,09,03,00,56,15.90
2010,09,03,00,57,15.80
2010,09,03,00,58,15.80
2010,09,03,00,59,15.80
2010,09,03,01,00,15.80
2010,09,03,01,01,15.80
2010,09,03,01,02,15.80
2010,09,03,01,03,15.80
2010,09,03,01,04,15.80
2010,09,03,01,05,15.80
2010,09,03,01,06,15.80
2010,09,03,01,07,15.80
2010,09,03,01,08,15.80
2010,09,03,01,09,15.80
2010,09,03,01,10,15.80
2010,09,03,01,11,15.80
2010,09,03,01,12,15.80
2010,09,03,01,13,15.80
2010,09,03,01,14,15.80
2010,09,03,01,15,15.80
2010,09,03,01,16,15.80
2010,09,03,01,17,15.80
2010,09,03,01,18,15.80
2010,09,03,01,19,15.80
2010,09,03,01,20,15.80
2010,09,03,01,21,15.90
2010,09,03,01,22,15.90
2010,09,03,01,23,16.00
2010,09,03,01,24,16.00
2010,09,03,01,25,16.10
2010,09,03,01,26,16.10
2010,09,03,01,27,16.10
2010,09,03,01,28,16.20
2010,09,03,01,29,16.20
2010,09,03,01,30,16.20
2010,09,03,01,31,16.20
2010,09,03,01,32,16.20
2010,09,03,01,33,16.20
2010,09,03,01,34,16.20
2010,09,03,01,35,16.20
2010,09,03,01,36,16.20
2010,09,03,01,37,16.10
2010,09,03,01,38,16.10
2010,09,03,01,39,16.10
2010,09,03,01,40,16.10
2010,09,03,01,41,16.00
2010,09,03,01,42,16.00
2010,09,03,01,43,16.00
2010,09,03,01,44,15.90
2010,09,03,01,45,15.90
2010,09,03,01,46,15.90
2010,09,03,01,47,15.90
2010,09,03,01,48,15.80
2010,09,03,01,49,15.80
2010,09,03,01,50,15.80
2010,09,03,01,51,15.80
2010,09,03,01,52,15.80
2010,09,03,01,53,15.80
2010,09,03,01,54,15.90
2010,09,03,01,55,15.90
2010,09,03,01,56,15.90
2010,09,03,01,57,15.90
2010,09,03,01,58,15.90
2010,09,03,01,59,15.90
2010,09,03,02,00,15.90
2010,09,03,02,01,15.90
2010,09,03,02,02,15.90
2010,09,03,02,03,15.90
2010,09,03,02,04,15.90
2010,09,03,02,05,15.90
2010,09,03,02,06,16.00
2010,09,03,02,07,16.00
2010,09,03,02,08,16.00
2010,09,03,02,09,16.00
2010,09,03,02,10,15.90
2010,09,03,02,11,15.90
2010,09,03,02,12,15.90
2010,09,03,02,13,15.90
2010,09,03,02,14,15.90
2010,09,03,02,15,15.90
2010,09,03,02,16,15.90
2010,09,03,02,17,15.90
2010,09,03,02,18,15.90
2010,09,03,02,19,15.90
2010,09,03,02,20,15.90
2010,09,03,02,21,15.90
2010,09,03,02,22,15.80
2010,09,03,02,23,15.80
2010,09,03,02,24,15.80
2010,09,03,02,25,15.80
2010,09,03,02,26,15.70
2010,09,03,02,27,15.70
2010,09,03,02,28,15.70
2010,09,03,02,29,15.60
2010,09,03,02,30,15.60
2010,09,03,02,31,15.50
2010,09,03,02,32,15.50
2010,09,03,02,33,15.40
2010,09,03,02,34,15.40
2010,09,03,02,35,15.30
2010,09,03,02,36,15.30
2010,09,03,02,37,15.30
2010,09,03,02,38,15.30
2010,09,03,02,39,15.30
2010,09,03,02,40,15.30
2010,09,03,02,41,15.30
2010,09,03,02,42,15.30
2010,09,03,02,43,15.30
2010,09,03,02,44,15.30
2010,09,03,02,45,15.40
2010,09,03,02,46,15.40
2010,09,03,02,47,15.40
2010,09,03,02,48,15.40
2010,09,03,02,49,15.50
2010,09,03,02,50,15.60
2010,09,03,02,51,15.60
2010,09,03,02,52,15.70
2010,09,03,02,53,15.70
2010,09,03,02,54,15.70
2010,09,03,02,55,15.80
2010,09,03,02,56,15.80
2010,09,03,02,57,15.80
2010,09,03,02,58,15.80
2010,09,03,02,59,15.90
2010,09,03,03,00,15.90
2010,09,03,03,01,15.90
2010,09,03,03,02,15.90
2010,09,03,03,03,16.00
2010,09,03,03,04,16.00
2010,09,03,03,05,16.00
2010,09,03,03,06,16.10
2010,09,03,03,07,16.10
2010,09,03,03,08,16.10
2010,09,03,03,09,16.20
2010,09,03,03,10,16.20
2010,09,03,03,11,16.20
2010,09,03,03,12,16.20
2010,09,03,03,13,16.20
2010,09,03,03,14,16.20
2010,09,03,03,15,16.20
2010,09,03,03,16,16.20
2010,09,03,03,17,16.20
2010,09,03,03,18,16.20
2010,09,03,03,19,16.20
2010,09,03,03,20,16.20
2010,09,03,03,21,16.20
2010,09,03,03,22,16.20
2010,09,03,03,23,16.20
2010,09,03,03,24,16.20
2010,09,03,03,25,16.20
2010,09,03,03,26,16.10
2010,09,03,03,27,16.10
2010,09,03,03,28,16.10
2010,09,03,03,29,16.10
2010,09,03,03,30,16.10
2010,09,03,03,31,16.10
2010,09,03,03,32,16.10
2010,09,03,03,33,16.10
2010,09,03,03,34,16.10
2010,09,03,03,35,16.10
2010,09,03,03,36,16.00
2010,09,03,03,37,16.00
2010,09,03,03,38,16.00
2010,09,03,03,39,15.90
2010,09,03,03,40,15.90
2010,09,03,03,41,15.90
2010,09,03,03,42,15.80
2010,09,03,03,43,15.80
2010,09,03,03,44,15.80
2010,09,03,03,45,15.70
2010,09,03,03,46,15.70
2010,09,03,03,47,15.70
2010,09,03,03,48,15.70
2010,09,03,03,49,15.70
2010,09,03,03,50,15.70
2010,09,03,03,51,15.70
2010,09,03,03,52,15.70
2010,09,03,03,53,15.70
2010,09,03,03,54,15.70
2010,09,03,03,55,15.60
2010,09,03,03,56,15.60
2010,09,03,03,57,15.60
2010,09,03,03,58,15.60
2010,09,03,03,59,15.60
2010,09,03,04,00,15.60
2010,09,03,04,01,15.50
2010,09,03,04,02,15.50
2010,09,03,04,03,15.50
2010,09,03,04,04,15.40
2010,09,03,04,05,15.40
2010,09,03,04,06,15.40
2010,09,03,04,07,15.40
2010,09,03,04,08,15.30
2010,09,03,04,09,15.30
2010,09,03,04,10,15.30
2010,09,03,04,11,15.30
2010,09,03,04,12,15.30
2010,09,03,04,13,15.30
2010,09,03,04,14,15.30
2010,09,03,04,15,15.30
2010,09,03,04,16,15.30
2010,09,03,04,17,15.30
2010,09,03,04,18,15.30
2010,09,03,04,19,15.30
2010,09,03,04,20,15.30
2010,09,03,04,21,15.30
2010,09,03,04,22,15.20
2010,09,03,04,23,15.20
2010,09,03,04,24,15.20
2010,09,03,04,25,15.20
2010,09,03,04,26,15.20
2010,09,03,04,27,15.20
2010,09,03,04,28,15.20
2010,09,03,04,29,15.20
2010,09,03,04,30,15.20
2010,09,03,04,31,15.20
2010,09,03,04,32,15.20
2010,09,03,04,33,15.20
2010,09,03,04,34,15.20
2010,09,03,04,35,15.10
2010,09,03,04,36,15.10
2010,09,03,04,37,15.10
2010,09,03,04,38,15.10
2010,09,03,04,39,15.10
2010,09,03,04,40,15.10
2010,09,03,04,41,15.10
2010,09,03,04,42,15.10
2010,09,03,04,43,15.10
2010,09,03,04,44,15.10
2010,09,03,04,45,15.20
2010,09,03,04,46,15.20
2010,09,03,04,47,15.20
2010,09,03,04,48,15.20
2010,09,03,04,49,15.20
2010,09,03,04,50,15.30
2010,09,03,04,51,15.30
2010,09,03,04,52,15.30
2010,09,03,04,53,15.30
2010,09,03,04,54,15.30
2010,09,03,04,55,15.30
2010,09,03,04,56,15.30
2010,09,03,04,57,15.40
2010,09,03,04,58,15.40
2010,09,03,04,59,15.40
2010,09,03,05,00,15.40
2010,09,03,05,01,15.40
2010,09,03,05,02,15.40
2010,09,03,05,03,15.30
2010,09,03,05,04,15.30
2010,09,03,05,05,15.30
2010,09,03,05,06,15.30
2010,09,03,05,07,15.30
2010,09,03,05,08,15.30
2010,09,03,05,09,15.30
2010,09,03,05,10,15.30
2010,09,03,05,11,15.30
2010,09,03,05,12,15.30
2010,09,03,05,13,15.30
2010,09,03,05,14,15.30
2010,09,03,05,15,15.30
2010,09,03,05,16,15.30
2010,09,03,05,17,15.30
2010,09,03,05,18,15.30
2010,09,03,05,19,15.30
2010,09,03,05,20,15.30
2010,09,03,05,21,15.30
2010,09,03,05,22,15.30
2010,09,03,05,23,15.20
2010,09,03,05,24,15.20
2010,09,03,05,25,15.20
2010,09,03,05,26,15.20
2010,09,03,05,27,15.20
2010,09,03,05,28,15.20
2010,09,03,05,29,15.20
2010,09,03,05,30,15.20
2010,09,03,05,31,15.20
2010,09,03,05,32,15.10
2010,09,03,05,33,15.10
2010,09,03,05,34,15.10
2010,09,03,05,35,15.10
2010,09,03,05,36,15.00
2010,09,03,05,37,15.00
2010,09,03,05,38,15.00
2010,09,03,05,39,15.00
2010,09,03,05,40,15.00
2010,09,03,05,41,15.00
2010,09,03,05,42,15.00
2010,09,03,05,43,15.00
2010,09,03,05,44,15.00
2010,09,03,05,45,15.00
2010,09,03,05,46,15.00
2010,09,03,05,47,15.00
2010,09,03,05,48,15.00
2010,09,03,05,49,15.00
2010,09,03,05,50,15.00
2010,09,03,05,51,14.90
2010,09,03,05,52,14.80
2010,09,03,05,53,14.80
2010,09,03,05,54,14.80
2010,09,03,05,55,14.70
2010,09,03,05,56,14.70
2010,09,03,05,57,14.60
2010,09,03,05,58,14.60
2010,09,03,05,59,14.60
2010,09,03,06,00,14.60
2010,09,03,06,01,14.60
2010,09,03,06,02,14.50
2010,09,03,06,03,14.50
2010,09,03,06,04,14.50
2010,09,03,06,05,14.50
2010,09,03,06,06,14.50
2010,09,03,06,07,14.50
2010,09,03,06,08,14.50
2010,09,03,06,09,14.50
2010,09,03,06,10,14.50
2010,09,03,06,11,14.60
2010,09,03,06,12,14.60
2010,09,03,06,13,14.60
2010,09,03,06,14,14.60
2010,09,03,06,15,14.60
2010,09,03,06,16,14.60
2010,09,03,06,17,14.60
2010,09,03,06,18,14.60
2010,09,03,06,19,14.70
2010,09,03,06,20,14.70
2010,09,03,06,21,14.70
2010,09,03,06,22,14.70
2010,09,03,06,23,14.70
2010,09,03,06,24,14.80
2010,09,03,06,25,14.80
2010,09,03,06,26,14.80
2010,09,03,06,27,14.80
2010,09,03,06,28,14.80
2010,09,03,06,29,14.80
2010,09,03,06,30,14.80
2010,09,03,06,31,14.80
2010,09,03,06,32,14.80
2010,09,03,06,33,14.80
2010,09,03,06,34,14.80
2010,09,03,06,35,14.80
2010,09,03,06,36,14.80
2010,09,03,06,37,14.80
2010,09,03,06,38,14.80
2010,09,03,06,39,14.80
2010,09,03,06,40,14.80
2010,09,03,06,41,14.80
2010,09,03,06,42,14.80
2010,09,03,06,43,14.80
2010,09,03,06,44,14.80
2010,09,03,06,45,14.80
2010,09,03,06,46,14.80
2010,09,03,06,47,14.80
2010,09,03,06,48,14.80
2010,09,03,06,49,14.80
2010,09,03,06,50,14.80
2010,09,03,06,51,14.80
2010,09,03,06,52,14.80
2010,09,03,06,53,14.80
2010,09,03,06,54,14.80
2010,09,03,06,55,14.80
2010,09,03,06,56,14.80
2010,09,03,06,57,14.80
2010,09,03,06,58,14.80
2010,09,03,06,59,14.80
2010,09,03,07,00,14.80
2010,09,03,07,01,14.80
2010,09,03,07,02,14.80
2010,09,03,07,03,14.80
2010,09,03,07,04,14.80
2010,09,03,07,05,14.80
2010,09,03,07,06,14.80
2010,09,03,07,07,14.80
2010,09,03,07,08,14.80
2010,09,03,07,09,14.80
2010,09,03,07,10,14.80
2010,09,03,07,11,14.80
2010,09,03,07,12,14.80
2010,09,03,07,13,14.80
2010,09,03,07,14,14.80
2010,09,03,07,15,14.90
2010,09,03,07,16,14.90
2010,09,03,07,17,14.90
2010,09,03,07,18,15.00
2010,09,03,07,19,15.00
2010,09,03,07,20,15.00
2010,09,03,07,21,15.00
2010,09,03,07,22,15.00
2010,09,03,07,23,15.00
2010,09,03,07,24,15.00
2010,09,03,07,25,15.00
2010,09,03,07,26,15.00
2010,09,03,07,27,15.00
2010,09,03,07,28,15.00
2010,09,03,07,29,15.00
2010,09,03,07,30,15.00
2010,09,03,07,31,15.00
2010,09,03,07,32,15.00
2010,09,03,07,33,15.00
2010,09,03,07,34,15.00
2010,09,03,07,35,15.00
2010,09,03,07,36,15.00
2010,09,03,07,37,15.00
2010,09,03,07,38,15.00
2010,09,03,07,39,15.00
2010,09,03,07,40,15.00
2010,09,03,07,41,15.10
2010,09,03,07,42,15.10
2010,09,03,07,43,15.20
2010,09,03,07,44,15.20
2010,09,03,07,45,15.30
2010,09,03,07,46,15.30
2010,09,03,07,47,15.40
2010,09,03,07,48,15.40
2010,09,03,07,49,15.40
2010,09,03,07,50,15.50
2010,09,03,07,51,15.50
2010,09,03,07,52,15.60
2010,09,03,07,53,15.60
2010,09,03,07,54,15.70
2010,09,03,07,55,15.70
2010,09,03,07,56,15.70
2010,09,03,07,57,15.80
2010,09,03,07,58,15.80
2010,09,03,07,59,15.90
2010,09,03,08,00,16.00
2010,09,03,08,01,16.00
2010,09,03,08,02,16.10
2010,09,03,08,03,16.10
2010,09,03,08,04,16.20
2010,09,03,08,05,16.20
2010,09,03,08,06,16.30
2010,09,03,08,07,16.30
2010,09,03,08,08,16.30
2010,09,03,08,09,16.40
2010,09,03,08,10,16.40
2010,09,03,08,11,16.50
2010,09,03,08,12,16.50
2010,09,03,08,13,16.60
2010,09,03,08,14,16.60
2010,09,03,08,15,16.70
2010,09,03,08,16,16.70
2010,09,03,08,17,16.80
2010,09,03,08,18,16.80
2010,09,03,08,19,16.90
2010,09,03,08,20,17.00
2010,09,03,08,21,17.10
2010,09,03,08,22,17.10
2010,09,03,08,23,17.20
2010,09,03,08,24,17.30
2010,09,03,08,25,17.40
2010,09,03,08,26,17.50
2010,09,03,08,27,17.60
2010,09,03,08,28,17.70
2010,09,03,08,29,17.80
2010,09,03,08,30,17.90
2010,09,03,08,31,18.00
2010,09,03,08,32,18.10
2010,09,03,08,33,18.20
2010,09,03,08,34,18.30
2010,09,03,08,35,18.40
2010,09,03,08,36,18.40
2010,09,03,08,37,18.50
2010,09,03,08,38,18.60
2010,09,03,08,39,18.70
2010,09,03,08,40,18.80
2010,09,03,08,41,18.80
2010,09,03,08,42,18.90
2010,09,03,08,43,18.90
2010,09,03,08,44,19.00
2010,09,03,08,45,19.10
2010,09,03,08,46,19.10
2010,09,03,08,47,19.20
2010,09,03,08,48,19.20
2010,09,03,08,49,19.20
2010,09,03,08,50,19.30
2010,09,03,08,51,19.30
2010,09,03,08,52,19.30
2010,09,03,08,53,19.40
2010,09,03,08,54,19.40
2010,09,03,08,55,19.40
2010,09,03,08,56,19.40
2010,09,03,08,57,19.40
2010,09,03,08,58,19.40
2010,09,03,08,59,19.40
2010,09,03,09,00,19.40
2010,09,03,09,01,19.40
2010,09,03,09,02,19.40
2010,09,03,09,03,19.40
2010,09,03,09,04,19.50
2010,09,03,09,05,19.50
2010,09,03,09,06,19.60
2010,09,03,09,07,19.60
2010,09,03,09,08,19.70
2010,09,03,09,09,19.70
2010,09,03,09,10,19.80
2010,09,03,09,11,19.80
2010,09,03,09,12,19.90
2010,09,03,09,13,19.90
2010,09,03,09,14,19.90
2010,09,03,09,15,20.00
2010,09,03,09,16,20.10
2010,09,03,09,17,20.10
2010,09,03,09,18,20.20
2010,09,03,09,19,20.20
2010,09,03,09,20,20.30
2010,09,03,09,21,20.30
2010,09,03,09,22,20.40
2010,09,03,09,23,20.50
2010,09,03,09,24,20.50
2010,09,03,09,25,20.60
2010,09,03,09,26,20.60
2010,09,03,09,27,20.70
2010,09,03,09,28,20.70
2010,09,03,09,29,20.70
2010,09,03,09,30,20.70
2010,09,03,09,31,20.70
2010,09,03,09,32,20.70
2010,09,03,09,33,20.70
2010,09,03,09,34,20.70
2010,09,03,09,35,20.70
2010,09,03,09,36,20.70
2010,09,03,09,37,20.70
2010,09,03,09,38,20.70
2010,09,03,09,39,20.80
2010,09,03,09,40,20.80
2010,09,03,09,41,20.80
2010,09,03,09,42,20.70
2010,09,03,09,43,20.70
2010,09,03,09,44,20.60
2010,09,03,09,45,20.50
2010,09,03,09,46,20.40
2010,09,03,09,47,20.30
2010,09,03,09,48,20.20
2010,09,03,09,49,20.10
2010,09,03,09,50,20.00
2010,09,03,09,51,20.00
2010,09,03,09,52,19.90
2010,09,03,09,53,19.80
2010,09,03,09,54,19.80
2010,09,03,09,55,19.80
2010,09,03,09,56,19.80
2010,09,03,09,57,19.80
2010,09,03,09,58,19.80
2010,09,03,09,59,19.80
2010,09,03,10,00,19.80
2010,09,03,10,01,19.80
2010,09,03,10,02,19.90
2010,09,03,10,03,20.00
2010,09,03,10,04,20.00
2010,09,03,10,05,20.00
2010,09,03,10,06,20.00
2010,09,03,10,07,19.90
2010,09,03,10,08,19.90
2010,09,03,10,09,19.90
2010,09,03,10,10,19.90
2010,09,03,10,11,19.90
2010,09,03,10,12,20.00
2010,09,03,10,13,20.10
2010,09,03,10,14,20.10
2010,09,03,10,15,20.20
2010,09,03,10,16,20.30
2010,09,03,10,17,20.30
2010,09,03,10,18,20.40
2010,09,03,10,19,20.40
2010,09,03,10,20,20.40
2010,09,03,10,21,20.30
2010,09,03,10,22,20.30
2010,09,03,10,23,20.30
2010,09,03,10,24,20.30
2010,09,03,10,25,20.30
2010,09,03,10,26,20.40
2010,09,03,10,27,20.40
2010,09,03,10,28,20.40
2010,09,03,10,29,20.40
2010,09,03,10,30,20.40
2010,09,03,10,31,20.40
2010,09,03,10,32,20.40
2010,09,03,10,33,20.40
2010,09,03,10,34,20.40
2010,09,03,10,35,20.40
2010,09,03,10,36,20.40
2010,09,03,10,37,20.40
2010,09,03,10,38,20.50
2010,09,03,10,39,20.50
2010,09,03,10,40,20.50
2010,09,03,10,41,20.60
2010,09,03,10,42,20.60
2010,09,03,10,43,20.60
2010,09,03,10,44,20.60
2010,09,03,10,45,20.60
2010,09,03,10,46,20.60
2010,09,03,10,47,20.50
2010,09,03,10,48,20.40
2010,09,03,10,49,20.40
2010,09,03,10,50,20.40
2010,09,03,10,51,20.40
2010,09,03,10,52,20.50
2010,09,03,10,53,20.50
2010,09,03,10,54,20.60
2010,09,03,10,55,20.60
2010,09,03,10,56,20.70
2010,09,03,10,57,20.70
2010,09,03,10,58,20.70
2010,09,03,10,59,20.70
2010,09,03,11,00,20.70
2010,09,03,11,01,20.70
2010,09,03,11,02,20.70
2010,09,03,11,03,20.80
2010,09,03,11,04,20.80
2010,09,03,11,05,20.80
2010,09,03,11,06,20.90
2010,09,03,11,07,20.90
2010,09,03,11,08,20.90
2010,09,03,11,09,20.90
2010,09,03,11,10,20.90
2010,09,03,11,11,21.00
2010,09,03,11,12,21.00
2010,09,03,11,13,21.10
2010,09,03,11,14,21.10
2010,09,03,11,15,21.10
2010,09,03,11,16,21.10
2010,09,03,11,17,21.10
2010,09,03,11,18,21.10
2010,09,03,11,19,21.10
2010,09,03,11,20,21.00
2010,09,03,11,21,21.00
2010,09,03,11,22,21.00
2010,09,03,11,23,21.00
2010,09,03,11,24,21.10
2010,09,03,11,25,21.10
2010,09,03,11,26,21.20
2010,09,03,11,27,21.20
2010,09,03,11,28,21.20
2010,09,03,11,29,21.20
2010,09,03,11,30,21.20
2010,09,03,11,31,21.20
2010,09,03,11,32,21.20
2010,09,03,11,33,21.20
2010,09,03,11,34,21.20
2010,09,03,11,35,21.30
2010,09,03,11,36,21.30
2010,09,03,11,37,21.30
2010,09,03,11,38,21.30
2010,09,03,11,39,21.30
2010,09,03,11,40,21.20
2010,09,03,11,41,21.20
2010,09,03,11,42,21.10
2010,09,03,11,43,21.00
2010,09,03,11,44,21.00
2010,09,03,11,45,20.90
2010,09,03,11,46,20.90
2010,09,03,11,47,20.80
2010,09,03,11,48,20.80
2010,09,03,11,49,20.80
2010,09,03,11,50,20.80
2010,09,03,11,51,20.80
2010,09,03,11,52,20.80
2010,09,03,11,53,20.90
2010,09,03,11,54,20.90
2010,09,03,11,55,20.90
2010,09,03,11,56,20.90
2010,09,03,11,57,21.00
2010,09,03,11,58,21.00
2010,09,03,11,59,21.00
2010,09,03,12,00,21.00
2010,09,03,12,01,20.90
2010,09,03,12,02,20.90
2010,09,03,12,03,20.80
2010,09,03,12,04,20.80
2010,09,03,12,05,20.90
2010,09,03,12,06,20.90
2010,09,03,12,07,21.00
2010,09,03,12,08,21.00
2010,09,03,12,09,21.10
2010,09,03,12,10,21.10
2010,09,03,12,11,21.20
2010,09,03,12,12,21.20
2010,09,03,12,13,21.30
2010,09,03,12,14,21.30
2010,09,03,12,15,21.30
2010,09,03,12,16,21.30
2010,09,03,12,17,21.30
2010,09,03,12,18,21.30
2010,09,03,12,19,21.30
2010,09,03,12,20,21.30
2010,09,03,12,21,21.30
2010,09,03,12,22,21.30
2010,09,03,12,23,21.30
2010,09,03,12,24,21.30
2010,09,03,12,25,21.30
2010,09,03,12,26,21.40
2010,09,03,12,27,21.40
2010,09,03,12,28,21.40
2010,09,03,12,29,21.50
2010,09,03,12,30,21.40
2010,09,03,12,31,21.40
2010,09,03,12,32,21.30
2010,09,03,12,33,21.30
2010,09,03,12,34,21.30
2010,09,03,12,35,21.40
2010,09,03,12,36,21.50
2010,09,03,12,37,21.60
2010,09,03,12,38,21.60
2010,09,03,12,39,21.60
2010,09,03,12,40,21.60
2010,09,03,12,41,21.60
2010,09,03,12,42,21.50
2010,09,03,12,43,21.50
2010,09,03,12,44,21.50
2010,09,03,12,45,21.50
2010,09,03,12,46,21.50
2010,09,03,12,47,21.60
2010,09,03,12,48,21.60
2010,09,03,12,49,21.60
2010,09,03,12,50,21.70
2010,09,03,12,51,21.70
2010,09,03,12,52,21.70
2010,09,03,12,53,21.70
2010,09,03,12,54,21.70
2010,09,03,12,55,21.70
2010,09,03,12,56,21.70
2010,09,03,12,57,21.70
2010,09,03,12,58,21.70
2010,09,03,12,59,21.70
2010,09,03,13,00,21.70
2010,09,03,13,01,21.70
2010,09,03,13,02,21.70
2010,09,03,13,03,21.70
2010,09,03,13,04,21.70
2010,09,03,13,05,21.70
2010,09,03,13,06,21.70
2010,09,03,13,07,21.70
2010,09,03,13,08,21.60
2010,09,03,13,09,21.60
2010,09,03,13,10,21.60
2010,09,03,13,11,21.60
2010,09,03,13,12,21.60
2010,09,03,13,13,21.60
2010,09,03,13,14,21.50
2010,09,03,13,15,21.50
2010,09,03,13,16,21.40
2010,09,03,13,17,21.40
2010,09,03,13,18,21.40
2010,09,03,13,19,21.40
2010,09,03,13,20,21.40
2010,09,03,13,21,21.40
2010,09,03,13,22,21.40
2010,09,03,13,23,21.40
2010,09,03,13,24,21.40
2010,09,03,13,25,21.40
2010,09,03,13,26,21.40
2010,09,03,13,27,21.40
2010,09,03,13,28,21.30
2010,09,03,13,29,21.30
2010,09,03,13,30,21.30
2010,09,03,13,31,21.30
2010,09,03,13,32,21.30
2010,09,03,13,33,21.30
2010,09,03,13,34,21.30
2010,09,03,13,35,21.30
2010,09,03,13,36,21.30
2010,09,03,13,37,21.30
2010,09,03,13,38,21.30
2010,09,03,13,39,21.30
2010,09,03,13,40,21.40
2010,09,03,13,41,21.40
2010,09,03,13,42,21.50
2010,09,03,13,43,21.60
2010,09,03,13,44,21.60
2010,09,03,13,45,21.70
2010,09,03,13,46,21.70
2010,09,03,13,47,21.70
2010,09,03,13,48,21.80
2010,09,03,13,49,21.80
2010,09,03,13,50,21.80
2010,09,03,13,51,21.80
2010,09,03,13,52,21.80
2010,09,03,13,53,21.80
2010,09,03,13,54,21.80
2010,09,03,13,55,21.90
2010,09,03,13,56,22.00
2010,09,03,13,57,22.10
2010,09,03,13,58,22.10
2010,09,03,13,59,22.10
2010,09,03,14,00,22.10
2010,09,03,14,01,22.00
2010,09,03,14,02,22.00
2010,09,03,14,03,21.80
2010,09,03,14,04,21.80
2010,09,03,14,05,21.80
2010,09,03,14,06,21.80
2010,09,03,14,07,21.80
2010,09,03,14,08,21.80
2010,09,03,14,09,21.70
2010,09,03,14,10,21.70
2010,09,03,14,11,21.60
2010,09,03,14,12,21.60
2010,09,03,14,13,21.60
2010,09,03,14,14,21.70
2010,09,03,14,15,21.80
2010,09,03,14,16,21.90
2010,09,03,14,17,22.10
2010,09,03,14,18,22.20
2010,09,03,14,19,22.20
2010,09,03,14,20,22.30
2010,09,03,14,21,22.40
2010,09,03,14,22,22.40
2010,09,03,14,23,22.50
2010,09,03,14,24,22.50
2010,09,03,14,25,22.50
2010,09,03,14,26,22.50
2010,09,03,14,27,22.50
2010,09,03,14,28,22.50
2010,09,03,14,29,22.40
2010,09,03,14,30,22.30
2010,09,03,14,31,22.20
2010,09,03,14,32,22.00
2010,09,03,14,33,22.00
2010,09,03,14,34,21.90
2010,09,03,14,35,21.80
2010,09,03,14,36,21.90
2010,09,03,14,37,21.90
2010,09,03,14,38,22.00
2010,09,03,14,39,22.00
2010,09,03,14,40,22.10
2010,09,03,14,41,22.10
2010,09,03,14,42,22.20
2010,09,03,14,43,22.10
2010,09,03,14,44,22.10
2010,09,03,14,45,22.00
2010,09,03,14,46,21.90
2010,09,03,14,47,21.70
2010,09,03,14,48,21.70
2010,09,03,14,49,21.80
2010,09,03,14,50,21.80
2010,09,03,14,51,21.80
2010,09,03,14,52,21.80
2010,09,03,14,53,21.80
2010,09,03,14,54,21.80
2010,09,03,14,55,21.80
2010,09,03,14,56,21.80
2010,09,03,14,57,21.70
2010,09,03,14,58,21.70
2010,09,03,14,59,21.60
2010,09,03,15,00,21.60
2010,09,03,15,01,21.60
2010,09,03,15,02,21.70
2010,09,03,15,03,21.70
2010,09,03,15,04,21.70
2010,09,03,15,05,21.60
2010,09,03,15,06,21.60
2010,09,03,15,07,21.70
2010,09,03,15,08,21.70
2010,09,03,15,09,21.80
2010,09,03,15,10,21.80
2010,09,03,15,11,21.90
2010,09,03,15,12,22.10
2010,09,03,15,13,22.20
2010,09,03,15,14,22.30
2010,09,03,15,15,22.30
2010,09,03,15,16,22.30
2010,09,03,15,17,22.40
2010,09,03,15,18,22.40
2010,09,03,15,19,22.40
2010,09,03,15,20,22.40
2010,09,03,15,21,22.50
2010,09,03,15,22,22.60
2010,09,03,15,23,22.70
2010,09,03,15,24,22.80
2010,09,03,15,25,22.90
2010,09,03,15,26,23.00
2010,09,03,15,27,23.20
2010,09,03,15,28,23.20
2010,09,03,15,29,23.20
2010,09,03,15,30,23.10
2010,09,03,15,31,23.10
2010,09,03,15,32,23.10
2010,09,03,15,33,23.20
2010,09,03,15,34,23.20
2010,09,03,15,35,23.20
2010,09,03,15,36,23.30
2010,09,03,15,37,23.40
2010,09,03,15,38,23.50
2010,09,03,15,39,23.60
2010,09,03,15,40,23.60
2010,09,03,15,41,23.50
2010,09,03,15,42,23.40
2010,09,03,15,43,23.40
2010,09,03,15,44,23.50
2010,09,03,15,45,23.60
2010,09,03,15,46,23.60
2010,09,03,15,47,23.70
2010,09,03,15,48,23.80
2010,09,03,15,49,23.80
2010,09,03,15,50,23.90
2010,09,03,15,51,23.90
2010,09,03,15,52,23.90
2010,09,03,15,53,24.00
2010,09,03,15,54,24.20
2010,09,03,15,55,24.30
2010,09,03,15,56,24.40
2010,09,03,15,57,24.40
2010,09,03,15,58,24.30
2010,09,03,15,59,24.20
2010,09,03,16,00,24.10
2010,09,03,16,01,24.00
2010,09,03,16,02,24.10
2010,09,03,16,03,24.10
2010,09,03,16,04,24.00
2010,09,03,16,05,24.00
2010,09,03,16,06,23.90
2010,09,03,16,07,23.80
2010,09,03,16,08,23.70
2010,09,03,16,09,23.70
2010,09,03,16,10,23.80
2010,09,03,16,11,23.80
2010,09,03,16,12,23.90
2010,09,03,16,13,24.00
2010,09,03,16,14,24.10
2010,09,03,16,15,24.10
2010,09,03,16,16,24.20
2010,09,03,16,17,24.30
2010,09,03,16,18,24.40
2010,09,03,16,19,24.60
2010,09,03,16,20,24.60
2010,09,03,16,21,24.60
2010,09,03,16,22,24.60
2010,09,03,16,23,24.70
2010,09,03,16,24,24.70
2010,09,03,16,25,24.80
2010,09,03,16,26,24.90
2010,09,03,16,27,25.00
2010,09,03,16,28,25.10
2010,09,03,16,29,25.20
2010,09,03,16,30,25.20
2010,09,03,16,31,25.10
2010,09,03,16,32,25.10
2010,09,03,16,33,25.20
2010,09,03,16,34,25.20
2010,09,03,16,35,25.20
2010,09,03,16,36,25.20
2010,09,03,16,37,25.20
2010,09,03,16,38,25.20
2010,09,03,16,39,25.10
2010,09,03,16,40,25.20
2010,09,03,16,41,25.20
2010,09,03,16,42,25.30
2010,09,03,16,43,25.40
2010,09,03,16,44,25.60
2010,09,03,16,45,25.70
2010,09,03,16,46,25.80
2010,09,03,16,47,25.80
2010,09,03,16,48,25.90
2010,09,03,16,49,25.90
2010,09,03,16,50,25.90
2010,09,03,16,51,25.90
2010,09,03,16,52,25.90
2010,09,03,16,53,25.80
2010,09,03,16,54,25.80
2010,09,03,16,55,25.70
2010,09,03,16,56,25.60
2010,09,03,16,57,25.40
2010,09,03,16,58,25.30
2010,09,03,16,59,25.20
2010,09,03,17,00,25.10
2010,09,03,17,01,25.00
2010,09,03,17,02,24.90
2010,09,03,17,03,24.80
2010,09,03,17,04,24.80
2010,09,03,17,05,24.70
2010,09,03,17,06,24.60
2010,09,03,17,07,24.60
2010,09,03,17,08,24.50
2010,09,03,17,09,24.40
2010,09,03,17,10,24.40
2010,09,03,17,11,24.30
2010,09,03,17,12,24.30
2010,09,03,17,13,24.30
2010,09,03,17,14,24.30
2010,09,03,17,15,24.40
2010,09,03,17,16,24.50
2010,09,03,17,17,24.60
2010,09,03,17,18,24.50
2010,09,03,17,19,24.50